Tracking 29892 objects as of 21-Nov-2024
HD Live streaming from Space Station
objects crossing your sky now

SAUDICOMSAT 1

Track SAUDICOMSAT 1 now!
10-day predictions
SAUDICOMSAT 1 is classified as:


NORAD ID: 28369
Int'l Code: 2004-025D
Perigee: 695.1 km
Apogee: 741.0 km
Inclination: 98.6 °
Period: 99.0 minutes
Semi major axis: 7089 km
RCS: 0.0481 m2 (small)
Launch date: June 29, 2004
Source: Saudi Arabia (SAUD)
Launch site: TYURATAM MISSILE AND SPACE COMPLEX (TTMTR)
Your satellite tracking list
Your tracking list is empty




NASA's NSSDC Master Catalog

Two Line Element Set (TLE):
1 28369U 04025D   24325.38814549  .00001092  00000-0  26582-3 0  9995
2 28369  98.5547 309.8349 0032367 342.9396  17.0709 14.54533581 80686
Source of the keplerian elements: AFSPC